EN

Hourly Weather Savchenko

Today, 27 October, Tuesday

Time Temperature Precipitation Wind Pressure Humidity
00:00 +10°C° 0 mm 6 mps 762 mmHg 58%
01:00 +10°C° 0 mm 6 mps 762 mmHg 59%
02:00 +10°C° 0 mm 6 mps 762 mmHg 59%
03:00 +10°C° 0 mm 7 mps 762 mmHg 59%
04:00 +10°C° 0 mm 7 mps 763 mmHg 58%
05:00 +10°C° 0 mm 7 mps 763 mmHg 58%
06:00 +9°C° 0 mm 7 mps 763 mmHg 57%
07:00 +10°C° 0 mm 7 mps 763 mmHg 54%
08:00 +10°C° 0 mm 7 mps 763 mmHg 52%
09:00 +10°C° 0 mm 8 mps 763 mmHg 49%
10:00 +12°C° 0 mm 8 mps 763 mmHg 45%
11:00 +13°C° 0 mm 8 mps 763 mmHg 42%
12:00 +15°C° 0 mm 8 mps 763 mmHg 38%
13:00 +15°C° 0 mm 8 mps 763 mmHg 37%
14:00 +16°C° 0 mm 8 mps 763 mmHg 35%
15:00 +16°C° 0 mm 8 mps 763 mmHg 34%
16:00 +15°C° 0 mm 7 mps 763 mmHg 36%
17:00 +14°C° 0 mm 7 mps 763 mmHg 38%
18:00 +13°C° 0 mm 6 mps 763 mmHg 40%
19:00 +11°C° 0 mm 7 mps 763 mmHg 42%
20:00 +11°C° 0 mm 7 mps 763 mmHg 44%
21:00 +11°C° 0 mm 7 mps 763 mmHg 46%
22:00 +11°C° 0 mm 7 mps 763 mmHg 48%
23:00 +11°C° 0 mm 7 mps 762 mmHg 49%

Tomorrow, 28 October, Wednesday

Time Temperature Precipitation Wind Pressure Humidity
00:00 +11°C° 0 mm 7 mps 762 mmHg 51%
01:00 +10°C° 0 mm 7 mps 762 mmHg 57%
02:00 +10°C° 0 mm 7 mps 762 mmHg 64%
03:00 +9°C° 0 mm 7 mps 762 mmHg 70%
04:00 +9°C° 0 mm 7 mps 762 mmHg 72%
05:00 +9°C° 0 mm 7 mps 762 mmHg 73%
06:00 +8°C° 0 mm 7 mps 762 mmHg 75%
07:00 +9°C° 0 mm 7 mps 762 mmHg 74%
08:00 +10°C° 0 mm 8 mps 762 mmHg 72%
09:00 +10°C° 0 mm 8 mps 762 mmHg 71%
10:00 +11°C° 0 mm 8 mps 762 mmHg 68%
11:00 +12°C° 0 mm 8 mps 762 mmHg 64%
12:00 +13°C° 0 mm 8 mps 762 mmHg 61%
13:00 +15°C° 0 mm 8 mps 761 mmHg 59%
14:00 +15°C° 0 mm 8 mps 761 mmHg 57%
15:00 +16°C° 0 mm 7 mps 761 mmHg 55%
16:00 +15°C° 0 mm 7 mps 761 mmHg 58%
17:00 +14°C° 0 mm 6 mps 761 mmHg 61%
18:00 +13°C° 0 mm 6 mps 761 mmHg 64%
19:00 +13°C° 0 mm 6 mps 761 mmHg 63%
20:00 +13°C° 0 mm 6 mps 761 mmHg 62%
21:00 +11°C° 0 mm 6 mps 761 mmHg 61%
22:00 +11°C° 0 mm 6 mps 761 mmHg 64%
23:00 +11°C° 0 mm 6 mps 760 mmHg 66%

Day after tomorrow, 29 October, Thursday

Time Temperature Precipitation Wind Pressure Humidity
00:00 +10°C° 0 mm 6 mps 760 mmHg 68%
01:00 +10°C° 0.1 mm 6 mps 760 mmHg 72%
02:00 +10°C° 0.1 mm 6 mps 760 mmHg 75%
03:00 +10°C° 0.1 mm 6 mps 760 mmHg 79%
04:00 +9°C° 0 mm 6 mps 760 mmHg 79%
05:00 +9°C° 0 mm 6 mps 760 mmHg 80%
06:00 +9°C° 0 mm 7 mps 760 mmHg 81%
07:00 +10°C° 0 mm 7 mps 760 mmHg 78%
08:00 +10°C° 0 mm 7 mps 760 mmHg 76%
09:00 +11°C° 0 mm 6 mps 759 mmHg 73%
10:00 +13°C° 0 mm 6 mps 759 mmHg 69%
11:00 +15°C° 0 mm 6 mps 759 mmHg 65%
12:00 +16°C° 0 mm 6 mps 759 mmHg 60%
13:00 +17°C° 0 mm 6 mps 759 mmHg 58%
14:00 +19°C° 0 mm 6 mps 758 mmHg 57%
15:00 +20°C° 0 mm 6 mps 758 mmHg 55%
16:00 +19°C° 0 mm 6 mps 758 mmHg 60%
17:00 +17°C° 0 mm 5 mps 758 mmHg 65%
18:00 +16°C° 0 mm 5 mps 757 mmHg 69%
19:00 +16°C° 0 mm 5 mps 757 mmHg 72%
20:00 +15°C° 0 mm 5 mps 757 mmHg 75%
21:00 +15°C° 0 mm 5 mps 757 mmHg 77%
22:00 +15°C° 0 mm 5 mps 757 mmHg 78%
23:00 +15°C° 0 mm 4 mps 757 mmHg 79%

30 October, Friday

Time Temperature Precipitation Wind Pressure Humidity
00:00 +15°C° 0 mm 4 mps 756 mmHg 80%
01:00 +15°C° 0.3 mm 4 mps 756 mmHg 81%
02:00 +14°C° 0.3 mm 3 mps 756 mmHg 83%
03:00 +14°C° 0.3 mm 3 mps 756 mmHg 85%
04:00 +14°C° 0.4 mm 3 mps 756 mmHg 87%
05:00 +14°C° 0.4 mm 4 mps 757 mmHg 89%
06:00 +14°C° 0.4 mm 4 mps 757 mmHg 91%
07:00 +14°C° 0.1 mm 4 mps 757 mmHg 90%
08:00 +14°C° 0.1 mm 4 mps 757 mmHg 89%
09:00 +14°C° 0.1 mm 4 mps 757 mmHg 88%
10:00 +15°C° 0.2 mm 4 mps 757 mmHg 86%
11:00 +15°C° 0.2 mm 4 mps 757 mmHg 84%
12:00 +17°C° 0.2 mm 4 mps 757 mmHg 81%
13:00 +18°C° 0 mm 4 mps 757 mmHg 76%
14:00 +17°C° 0 mm 5 mps 756 mmHg 70%
15:00 +19°C° 0 mm 5 mps 756 mmHg 64%
16:00 +18°C° 0.1 mm 4 mps 756 mmHg 70%
17:00 +17°C° 0.1 mm 3 mps 757 mmHg 76%
18:00 +16°C° 0.1 mm 2 mps 757 mmHg 83%
19:00 +16°C° 0.4 mm 2 mps 757 mmHg 84%
20:00 +15°C° 0.4 mm 2 mps 757 mmHg 85%
21:00 +15°C° 0.4 mm 2 mps 757 mmHg 86%
22:00 +14°C° 0 mm 2 mps 757 mmHg 86%
23:00 +14°C° 0 mm 2 mps 757 mmHg 86%

31 October, Saturday

Time Temperature Precipitation Wind Pressure Humidity
00:00 +14°C° 0 mm 2 mps 757 mmHg 85%
01:00 +13°C° 0 mm 2 mps 757 mmHg 87%
02:00 +13°C° 0 mm 1 mps 757 mmHg 88%
03:00 +12°C° 0 mm 1 mps 757 mmHg 90%
04:00 +12°C° 0 mm 1 mps 758 mmHg 90%
05:00 +12°C° 0 mm 1 mps 758 mmHg 91%
06:00 +11°C° 0 mm 1 mps 758 mmHg 91%
07:00 +12°C° 0 mm 1 mps 758 mmHg 88%
08:00 +13°C° 0 mm 1 mps 758 mmHg 84%
09:00 +13°C° 0 mm 1 mps 759 mmHg 81%
10:00 +15°C° 0 mm 1 mps 759 mmHg 74%
11:00 +16°C° 0 mm 1 mps 759 mmHg 68%
12:00 +16°C° 0 mm 0 mps 759 mmHg 62%
13:00 +19°C° 0 mm 1 mps 759 mmHg 59%
14:00 +19°C° 0 mm 1 mps 759 mmHg 57%
15:00 +20°C° 0 mm 1 mps 759 mmHg 54%
16:00 +18°C° 0 mm 2 mps 759 mmHg 58%
17:00 +17°C° 0 mm 2 mps 759 mmHg 62%
18:00 +16°C° 0 mm 2 mps 759 mmHg 66%
19:00 +16°C° 0 mm 2 mps 759 mmHg 67%
20:00 +16°C° 0 mm 3 mps 759 mmHg 68%
21:00 +14°C° 0 mm 3 mps 759 mmHg 69%
22:00 +14°C° 0 mm 4 mps 759 mmHg 70%
23:00 +14°C° 0 mm 4 mps 759 mmHg 70%

1 November, Sunday

Time Temperature Precipitation Wind Pressure Humidity
00:00 +14°C° 0 mm 4 mps 759 mmHg 71%
01:00 +14°C° 0 mm 4 mps 759 mmHg 73%
02:00 +14°C° 0 mm 4 mps 759 mmHg 76%
03:00 +14°C° 0 mm 5 mps 759 mmHg 78%
04:00 +13°C° 0 mm 5 mps 759 mmHg 78%
05:00 +13°C° 0 mm 5 mps 759 mmHg 79%
06:00 +13°C° 0 mm 5 mps 759 mmHg 79%
07:00 +14°C° 0 mm 6 mps 759 mmHg 75%
08:00 +14°C° 0 mm 6 mps 759 mmHg 71%
09:00 +14°C° 0 mm 7 mps 759 mmHg 68%
10:00 +15°C° 0 mm 7 mps 759 mmHg 64%
11:00 +16°C° 0 mm 7 mps 759 mmHg 61%
12:00 +17°C° 0 mm 7 mps 759 mmHg 58%
13:00 +18°C° 0 mm 7 mps 759 mmHg 53%
14:00 +18°C° 0 mm 7 mps 759 mmHg 49%
15:00 +18°C° 0 mm 7 mps 759 mmHg 44%
16:00 +19°C° 0 mm 6 mps 760 mmHg 44%
17:00 +17°C° 0 mm 5 mps 760 mmHg 44%
18:00 +16°C° 0 mm 5 mps 760 mmHg 44%
19:00 +16°C° 0 mm 5 mps 760 mmHg 41%
20:00 +16°C° 0 mm 6 mps 760 mmHg 39%
21:00 +16°C° 0 mm 7 mps 760 mmHg 37%
22:00 +15°C° 0 mm 6 mps 760 mmHg 35%
23:00 +15°C° 0 mm 6 mps 760 mmHg 34%
Show more

We Need Your Consent

Meteoprog and our Service Providers may store and access personal data such as cookies, device identifiers or other similar technologies on your device and process such data to personalise content and ads, as well as provide social media features and to analyse the traffic.

  • Store and/or access information on your device

    Cookies, device identifiers or other information can be stored or accessed on your device for the purposes indicated above.

  • Personalised ads and content, ad and content measurement, audience insights, and products development

    Ads and content can be personalised based on a profile. More data can be added to better personalise ads and content. Ad and content performance can be measured. Insights about the audience who saw the ads and content can be derived. Such data can be used to develop or improve user’s experience, systems and software.

By clicking ‘I Agree’ you will allow the use of indicated cookies, device identifiers, web beacons or other similar technologies. Your settings can be changed in the browser on your device.

For certain purposes, legitimate interests may be relied on, rather than consent. You can read more about this in our Privacy and Cookie Policy.